Showing default

COSMOS 2093, 20738

Orbit data source: Space-Track

COSMOS 2093, 20738 is a payload satellite owned by UNKS (CIS) in LEO that was launched on Wed, 08 Aug 1990 UTC via a TSIKLON-3 launch vehicle from the Plesetsk Missile And Space Complex (PKMTR). Payload-class satellites include a variety of spacecraft equipped with specific instruments for various scientific and technological missions. These include communications satellites like Starlink; space stations such as the ISS; scientific satellites like the Hubble; Earth observation satellites from companies like Planet Labs, Umbra, and HawkEye 360; GPS; miniature CubeSats for education and research; and military/defense satellites.

Loading next visibility...
Identifier
20738, 1990-070D
Orbit
LEO
Country
Flag of CISCIS
Related business
Manufacturer
NPO PM
Mission
Defense Communications
Bus & Motor
STRELA-3, Unknown motor
Mass
225 kg wet, 225 kg dry
Launch date (UTC)
1990-08-08 (35 years ago)
Launch vehicle
TSIKLON-3
Launch site
Plesetsk Missile And Space Complex (PKMTR)
Object type
Payload
Rocket body
Debris
Shape & HBR
Cyl, 0.8 m
Radar Cross Section
1.257 m², Large (>1 m²)

Expand to show TLE details & history
Last TLE update: 18 hours ago

TLE from 18 hours ago
0 COSMOS 2093
1 20738U 90070D   25261.06815031  .00000042  00000-0  16912-3 0  9994
2 20738  82.5713 115.2124 0009153  11.8791 141.7044 12.64085168619995
Epoch: 2025-09-18T01:38Z
TLE epoch observation values (Epoch: 2025-09-18T01:38:08.186Z)
Latitude
26.14485°
Longitude
-90.2082°
Altitude
1,414.759 km
Speed
7.153 km/s
True Right ascension
19h 26m 14s
True Declination
26° 01' 14"
Sunlit
Object was in daylight at epoch
Visualization orbit readout
Latitude
Unknown
Longitude
Unknown
Altitude
Unknown
Speed
Unknown
Apparent Right ascension
Unknown
Apparent Declination
Unknown
Sunlit
N/A
Visualization observer readout
Local Sidereal Time
12:58:47
Azimuth
Unknown
Elevation
Unknown
Doppler factor
Unknown
Orbital elements
Apogee altitude
1,410.569 km
Perigee altitude
1,396.324 km
Semi-major axis
7,781.584 km
Eccentricity
0.00092
Inclination
82.5713°
RAAN
115.2124°
Arg. of periapsis
11.8791°
True anomaly
141.76934°
Mean anomaly
141.7044°
Eccentric anomaly
141.73688°
Mean motion
3.16185 °/min
Orbital period
113.86 mins
BSTAR
0.00016912
Loading maneuver chart data...
Computing Atmospheric mass density...
Loading historical data...
Loading historical data...
Loading historical data...
Loading historical data...
Loading historical data...
Loading historical data...
Loading historical data...

Documentation

Showing up to 5 results
|